[[{"header":{"parameterUnit":"m.s-1","parameterCategory":1,"la1":30.2991,"la2":30.254,"lo1":-89.0895,"lo2":-89.0444,"dy":0.0017,"dx":0.0017,"nx":28,"ny":28,"refTime":"2024-05-22T09:00:00:Z","depth":0,"parameterNumber":2,"parameterNumberName":"U-component_of_WINDS"},"data":[0,0,0,0,0,0,0,0,0,0,0,0,0,0,0,0,0,0,0,0,0,0,0,0,0,0,0,0,0,0,0,0,0,0,0,0,0,0,0,0,0,0,0,0,0,0,0,0,0,0,0,0,0,0,0,0,0,0,-2.9795,-2.9795,0,-2.9825,-2.9825,-2.9826,-2.9797,-2.9796,-2.9795,-2.9794,-2.9824,-2.9826,-2.9828,0,0,0,0,0,0,0,0,0,0,0,0,0,-2.9714,-2.9716,-2.9795,-2.9795,-2.9796,-2.9825,-2.9825,-2.9826,-2.9797,-2.9796,-2.9795,-2.9793,-2.9823,-2.9826,-2.9828,0,0,0,0,0,0,0,0,0,0,0,0,0,-2.9747,-2.9716,-2.9795,-2.9785,-2.9785,-2.9825,-2.9825,-2.9826,-2.9798,-2.9796,-2.9794,-2.9793,-2.9823,-2.9825,-2.9828,-2.988,0,0,-2.9837,-2.9838,0,0,0,0,0,0,0,0,-2.9745,-2.975,-2.9786,-2.9786,-2.9785,-2.9806,-2.9808,-2.9844,-2.9798,-2.9793,-2.9794,-2.9792,-2.9819,-2.9822,-2.9832,-2.9881,-2.9882,-2.9837,-2.9839,-2.984,-2.9841,0,0,0,0,0,0,0,-2.9743,-2.9749,-2.9807,-2.9787,-2.9786,-2.9779,-2.9782,-2.9815,-2.9815,-2.9793,-2.9791,-2.9795,-2.9819,-2.9829,-2.9832,-2.9883,-2.9837,-2.9839,-2.9841,-2.9842,-2.9977,-2.9978,0,0,0,0,0,0,-2.9742,-2.9747,-2.9806,-2.9808,-2.9761,-2.9782,-2.9785,-2.9801,-2.9815,-2.9815,-2.9796,-2.9794,-2.9825,-2.9829,-2.9833,-2.9894,-2.984,-2.9843,-2.9844,-2.9975,-2.9977,-2.9979,0,0,0,0,0,0,-2.974,-2.9747,-2.9805,-2.9777,-2.9784,-2.9786,-2.9803,-2.9802,-2.9812,-2.9817,-2.9817,-2.9807,-2.9824,-2.9829,-2.9868,-2.9895,-2.9844,-2.9846,-2.9973,-2.9976,-2.9978,-3.0017,0,0,0,0,0,0,-2.9738,-2.9747,-2.9766,-2.9778,-2.9785,-2.9839,-2.9805,-2.9804,-2.9817,-2.9814,-2.9827,-2.9827,-2.9823,-2.9864,-2.9871,-2.9898,-2.9849,-2.997,-2.9974,-2.9977,-3.0013,-3.002,-3.0027,0,0,0,0,0,-2.9735,-2.9776,-2.9767,-2.9774,-2.9809,-2.9841,-2.9845,-2.9839,-2.982,-2.9839,-2.9843,-2.9827,-2.9891,-2.9869,-2.9876,-2.9904,-2.9968,-2.9973,-2.9977,-3.001,-3.0019,-3.0027,0,0,0,0,0,0,-2.9767,-2.9777,-2.9768,-2.9813,-2.9827,-2.9836,-2.986,-2.9849,-2.9868,-2.9864,-2.9856,-2.9859,-2.9901,-2.9907,-2.9881,-2.9955,-2.9927,-2.9933,-2.9949,-2.9958,-2.9965,-2.9962,-2.9851,0,0,0,0,0,-2.9779,-2.9804,-2.9811,-2.9851,-2.9858,-2.9858,-2.9872,-2.9866,-2.988,-2.9885,-2.9891,-2.9905,-2.9928,-2.9944,-2.9965,-3.0014,-3.0017,-3.0037,-3.0044,-3.005,-3.0055,-3.0081,-3.009,-2.9993,-2.9993,-2.9993,0,0,-2.9805,-2.9813,-2.9829,-2.9857,-2.9867,-2.9893,-2.9863,-2.9892,-2.9911,-2.9889,-2.9927,-2.9932,-2.9947,-2.9991,-3.0011,-2.9997,-3.0082,-3.0055,-3.006,-3.0061,-3.0086,-3.0096,-3.0104,-2.9996,-2.9995,-2.9995,0,0,-2.9864,-2.9873,-2.9907,-2.9918,-2.9933,-2.9933,-2.9942,-2.9953,-2.9956,-2.9994,-2.9978,-3.0001,-3.0042,-3.0053,-3.0064,-3.013,-3.0116,-3.0137,-3.0173,-3.0199,-3.0206,-3.0213,-3.0236,-3.0244,-3.0142,-3.0142,-3.0142,0,-2.9894,-2.9932,-2.9926,-2.9956,-2.9969,-2.9951,-2.9986,-2.9996,-3.0018,-3.0028,-3.0012,-3.0063,-3.0071,-3.0118,-3.0134,-3.0144,-3.0153,-3.0135,-3.0206,-3.0212,-3.0218,-3.024,-3.0249,-3.0145,-3.0144,-3.0144,-3.0144,0,-2.9967,-2.9994,-3.002,-3.0042,-3.0058,-3.009,-3.0089,-3.0106,-3.01,-3.0102,-3.014,-3.0151,-3.0174,-3.0186,-3.0179,-3.0232,-3.0223,-3.0207,-3.0178,-3.023,-3.025,-3.0259,-3.0148,-3.0147,-3.0147,-3.0146,0,0,-3.0046,-3.0065,-3.0074,-3.0084,-3.01,-3.0121,-3.0153,-3.0176,-3.0191,-3.0207,-3.0233,-3.0269,-3.0254,-3.0267,-3.0262,-3.0285,-3.0336,-3.0266,-3.0267,-3.0278,-3.0395,-3.0406,-3.0415,-3.0328,-3.033,-3.0331,-3.0393,0,-3.0105,-3.016,-3.0156,-3.0207,-3.0232,-3.0217,-3.0245,-3.0258,-3.0262,-3.0283,-3.0287,-3.0312,-3.0291,-3.0299,-3.0321,-3.0325,-3.0359,-3.0321,-3.0352,-3.0353,-3.0347,-3.0426,-3.0438,-3.0495,-3.0401,-3.0402,-3.0403,0,-3.0181,-3.02,-3.0254,-3.0268,-3.0278,-3.0303,-3.0324,-3.0346,-3.0361,-3.0362,-3.0377,-3.0368,-3.0401,-3.0373,-3.0417,-3.0391,-3.0404,-3.0409,-3.0411,-3.0412,-3.038,-3.0429,-3.0514,-3.0522,-3.0416,-3.0415,-3.0414,0,-3.0232,-3.0271,-3.0309,-3.0318,-3.0334,-3.0352,-3.036,-3.0374,-3.0388,-3.0408,-3.0417,-3.044,-3.0452,-3.047,-3.0468,-3.0448,-3.0514,-3.0486,-3.0515,-3.0515,-3.0528,-3.0527,-3.0615,-3.0538,-3.0538,-3.0538,-3.0538,0,-3.0298,-3.0331,-3.0332,-3.0355,-3.0392,-3.0388,-3.0425,-3.0431,-3.0444,-3.0468,-3.0457,-3.0479,-3.0477,-3.05,-3.0499,-3.0536,-3.0542,-3.0543,-3.0542,-3.0543,-3.0543,-3.0551,-3.0546,-3.054,-3.054,-3.054,-3.0539,0,-3.036,-3.0362,-3.0401,-3.0415,-3.0419,-3.0446,-3.0457,-3.0479,-3.0482,-3.0512,-3.0519,-3.0524,-3.0551,-3.0552,-3.0582,-3.0582,-3.0627,-3.0622,-3.0621,-3.062,-3.0649,-3.0646,-3.0744,-3.0756,-3.0673,-3.0674,-3.0674,0,-3.0401,-3.0427,-3.0443,-3.0458,-3.0467,-3.0492,-3.0507,-3.0505,-3.0521,-3.0541,-3.056,-3.0586,-3.0607,-3.065,-3.0656,-3.068,-3.0675,-3.0708,-3.0678,-3.0679,-3.0675,-3.0673,-3.0675,-3.0713,-3.0714,-3.0715,-3.0716,0,-3.0474,-3.0474,-3.0496,-3.0519,-3.0537,-3.0555,-3.0571,-3.0585,-3.0584,-3.0603,-3.063,-3.0646,-3.0678,-3.0704,-3.0727,-3.0736,-3.0726,-3.0725,-3.0733,-3.0734,-3.0732,-3.0732,-3.0636,-3.0722,-3.0722,-3.0721,-3.0721,-3.0721,-3.0526,-3.0548,-3.0563,-3.0588,-3.0601,-3.0617,-3.0638,-3.0644,-3.0667,-3.0692,-3.069,-3.072,-3.0736,-3.0766,-3.0777,-3.0801,-3.0789,-3.0801,-3.0803,-3.0806,-3.0809,-3.0729,-3.0805,-3.0805,-3.0805,-3.0804,-3.0804,0,-3.0598,-3.0607,-3.063,-3.0654,-3.0674,-3.0664,-3.0682,-3.0699,-3.0726,-3.0741,-3.0762,-3.0794,-3.0819,-3.0828,-3.0853,-3.087,-3.0866,-3.0877,-3.0875,-3.0877,-3.0818,-3.0808,-3.0879,-3.0879,-3.0879,-3.0879,-3.0879,-3.0879,-3.0638,-3.0674,-3.0676,-3.0719,-3.0728,-3.0758,-3.0769,-3.0784,-3.0796,-3.0832,-3.0853,-3.0859,-3.0872,-3.0897,-3.092,-3.0922,-3.0932,-3.0944,-3.0944,-3.0888,-3.0881,-3.0873,-3.0864,-3.0946,-3.0946,-3.1,-3.1001,-3.1001]},{"header":{"parameterUnit":"m.s-1","parameterCategory":1,"la1":30.2991,"la2":30.254,"lo1":-89.0895,"lo2":-89.0444,"dy":0.0017,"dx":0.0017,"nx":28,"ny":28,"refTime":"2024-05-22T09:00:00:Z","depth":0,"parameterNumber":3,"parameterNumberName":"V-component_of_WINDS"},"data":[0,0,0,0,0,0,0,0,0,0,0,0,0,0,0,0,0,0,0,0,0,0,0,0,0,0,0,0,0,0,0,0,0,0,0,0,0,0,0,0,0,0,0,0,0,0,0,0,0,0,0,0,0,0,0,0,0,0,4.37,4.37,0,4.3701,4.3701,4.3701,4.3674,4.3673,4.3672,4.3672,4.3672,4.3673,4.3673,0,0,0,0,0,0,0,0,0,0,0,0,0,4.3676,4.3676,4.37,4.37,4.37,4.3701,4.3701,4.3701,4.3674,4.3673,4.3672,4.3671,4.3672,4.3672,4.3673,0,0,0,0,0,0,0,0,0,0,0,0,0,4.3682,4.3676,4.37,4.3687,4.3686,4.3701,4.3701,4.3701,4.3674,4.3673,4.3672,4.3671,4.3671,4.3672,4.3673,4.3701,0,0,4.3676,4.3677,0,0,0,0,0,0,0,0,4.3682,4.3683,4.3689,4.3688,4.3686,4.3686,4.3692,4.3701,4.3674,4.3678,4.3672,4.367,4.3677,4.3678,4.368,4.3701,4.3701,4.3677,4.3677,4.3678,4.3678,0,0,0,0,0,0,0,4.3681,4.3683,4.37,4.3689,4.3687,4.3681,4.368,4.3694,4.3684,4.3678,4.3676,4.3676,4.3677,4.3679,4.368,4.3701,4.3677,4.3677,4.3678,4.3678,4.3745,4.3746,0,0,0,0,0,0,4.3683,4.3683,4.37,4.37,4.3681,4.3682,4.3682,4.3687,4.3684,4.3682,4.3677,4.3675,4.3678,4.3679,4.368,4.3712,4.3678,4.3679,4.3679,4.3743,4.3745,4.3746,0,0,0,0,0,0,4.3682,4.3685,4.37,4.3691,4.3692,4.3684,4.369,4.3688,4.369,4.3683,4.3681,4.3682,4.3677,4.3679,4.3696,4.3711,4.3679,4.368,4.3742,4.3744,4.3745,4.3776,0,0,0,0,0,0,4.3682,4.3685,4.3695,4.3691,4.3693,4.3716,4.3691,4.3689,4.3692,4.369,4.3687,4.3686,4.3677,4.3695,4.3697,4.3712,4.3681,4.3741,4.3743,4.3745,4.3774,4.3779,4.3783,0,0,0,0,0,4.3681,4.3703,4.3696,4.3698,4.3706,4.3717,4.3718,4.3707,4.3694,4.3704,4.3699,4.3686,4.371,4.3697,4.3699,4.3715,4.374,4.3742,4.3745,4.3771,4.3778,4.3783,0,0,0,0,0,0,4.3709,4.3703,4.3694,4.3716,4.3717,4.3713,4.3725,4.3714,4.3719,4.3716,4.3703,4.3702,4.3722,4.372,4.3706,4.3742,4.3722,4.3725,4.3742,4.3747,4.3752,4.3752,4.3682,0,0,0,0,0,4.3718,4.3727,4.3721,4.3741,4.3743,4.3734,4.3738,4.373,4.3731,4.3731,4.3728,4.3729,4.3737,4.3742,4.3749,4.3774,4.3772,4.3786,4.379,4.3794,4.3797,4.381,4.3815,4.3755,4.3755,4.3754,0,0,4.3735,4.3733,4.374,4.3747,4.3747,4.3757,4.3734,4.3746,4.3754,4.3733,4.3749,4.3747,4.3747,4.3769,4.3778,4.3768,4.3814,4.3798,4.3801,4.3801,4.3813,4.3819,4.3824,4.3756,4.3756,4.3756,0,0,4.3773,4.3773,4.3789,4.379,4.3791,4.3785,4.3789,4.3786,4.3784,4.38,4.3785,4.3793,4.3807,4.3808,4.381,4.385,4.3837,4.3852,4.3876,4.3889,4.3894,4.3898,4.3911,4.3916,4.3855,4.3855,4.3855,0,4.3795,4.381,4.3799,4.3812,4.3815,4.3798,4.3814,4.3815,4.3818,4.3821,4.381,4.3827,4.3826,4.3847,4.3857,4.3859,4.3863,4.3852,4.3894,4.3898,4.3902,4.3914,4.3919,4.3857,4.3857,4.3857,4.3857,0,4.3837,4.3848,4.3861,4.3865,4.387,4.3884,4.3875,4.3882,4.3874,4.3869,4.3886,4.3884,4.389,4.3895,4.3887,4.3915,4.3909,4.3896,4.3876,4.3909,4.3921,4.3926,4.386,4.3859,4.3858,4.3858,0,0,4.3891,4.3889,4.3894,4.3895,4.3895,4.3903,4.3917,4.3923,4.3929,4.3932,4.3943,4.3956,4.3944,4.3947,4.3939,4.395,4.3981,4.3936,4.3936,4.3944,4.4011,4.402,4.4026,4.3973,4.3974,4.3975,4.4011,0,4.3928,4.3951,4.3942,4.3967,4.3976,4.396,4.3972,4.3974,4.397,4.3978,4.3974,4.3983,4.3967,4.3968,4.3979,4.3975,4.3994,4.3972,4.3983,4.3983,4.3982,4.4032,4.4041,4.4076,4.4016,4.4016,4.4017,0,4.3973,4.3978,4.4003,4.4001,4.4005,4.4016,4.4021,4.4029,4.403,4.4027,4.403,4.402,4.4034,4.4015,4.4034,4.4019,4.4023,4.4022,4.4023,4.4023,4.4001,4.4033,4.4087,4.4091,4.4024,4.4023,4.4023,0,4.4009,4.4022,4.4039,4.4041,4.4039,4.4047,4.4047,4.4047,4.4052,4.4057,4.4059,4.4066,4.4069,4.4074,4.4065,4.4053,4.4085,4.4066,4.4082,4.4083,4.4089,4.4089,4.4144,4.4093,4.4093,4.4093,4.4093,0,4.405,4.4066,4.4055,4.4065,4.4083,4.4073,4.4091,4.4089,4.4089,4.4099,4.4085,4.4095,4.4083,4.4092,4.4086,4.4102,4.4103,4.4101,4.4099,4.4102,4.4102,4.4103,4.41,4.4095,4.4094,4.4094,4.4094,0,4.4093,4.4086,4.4104,4.4101,4.4101,4.4114,4.4112,4.4121,4.4117,4.4129,4.4132,4.4125,4.4134,4.4127,4.4136,4.4132,4.4153,4.4148,4.4152,4.4151,4.4168,4.4166,4.4225,4.4232,4.4178,4.4178,4.4179,0,4.4119,4.4131,4.413,4.4135,4.4136,4.4145,4.415,4.414,4.4146,4.4148,4.4158,4.4166,4.4171,4.4187,4.4183,4.419,4.4184,4.4204,4.4185,4.4187,4.4184,4.4183,4.4184,4.4208,4.4209,4.4209,4.421,0,4.4165,4.4162,4.4169,4.4175,4.4181,4.4186,4.4189,4.4195,4.4185,4.4192,4.4201,4.4205,4.4215,4.4223,4.4228,4.4228,4.4217,4.4216,4.422,4.4222,4.4224,4.4223,4.4162,4.4214,4.4214,4.4213,4.4213,4.4213,4.42,4.421,4.4211,4.422,4.4221,4.4225,4.4234,4.4231,4.4239,4.4245,4.424,4.4251,4.4252,4.4258,4.4259,4.4268,4.4259,4.4265,4.4267,4.4268,4.427,4.4224,4.4269,4.4269,4.4269,4.4268,4.4268,0,4.4246,4.4246,4.4254,4.4259,4.4266,4.4256,4.4259,4.4265,4.4275,4.4278,4.4284,4.4295,4.4302,4.4299,4.4306,4.4314,4.4309,4.4316,4.4315,4.4315,4.4278,4.4273,4.432,4.432,4.432,4.432,4.432,4.432,4.427,4.4286,4.4283,4.43,4.43,4.4311,4.4314,4.4317,4.4319,4.4331,4.4338,4.4336,4.4336,4.4343,4.435,4.4349,4.4351,4.436,4.4357,4.4322,4.4317,4.4313,4.4308,4.4361,4.4361,4.4393,4.4393,4.4394]}]]